ATC103 HTDA-HTZA

Flight info

Callsign ATC103
Flight time 0h 19m
Altitude 11000
Route NEPUN/N0356F100 DCT EGTUT DCT IBGUS DCT UDNUR/N0287F090 DCT OKPOL DCT IMTOM DCT IMVIV
Aircraft B39M/M-SDE2E3FGHIRWXY/LB1

Departure

Time 2026-05-09 20:07
Airport Julius Nyerere International Airport (HTDA)

Arrival

Time 2026-05-09 20:26
Airport Abeid Amani Karume International Airport (HTZA)
Time Latitude Longitude Altitude Speed Heading
2026-05-09 19:51 -6.86719 39.20818 180 ft 0 kts 274°
2026-05-09 19:58 -6.86720 39.20825 180 ft 2 kts 272°
2026-05-09 19:58 -6.86721 39.20842 180 ft 2 kts 274°
2026-05-09 19:58 -6.86722 39.20859 180 ft 2 kts 274°
2026-05-09 19:58 -6.86723 39.20875 180 ft 2 kts 272°
2026-05-09 19:59 -6.86723 39.20892 179 ft 2 kts 267°
2026-05-09 19:59 -6.86720 39.20909 179 ft 2 kts 227°
2026-05-09 19:59 -6.86718 39.20911 179 ft 0 kts 214°
2026-05-09 20:03 -6.86739 39.20898 179 ft 9 kts 207°
2026-05-09 20:03 -6.86827 39.20862 179 ft 18 kts 201°
2026-05-09 20:03 -6.86918 39.20878 178 ft 12 kts 122°
2026-05-09 20:03 -6.86915 39.20918 178 ft 6 kts 54°
2026-05-09 20:04 -6.86867 39.20961 179 ft 14 kts 44°
2026-05-09 20:04 -6.86812 39.21015 179 ft 20 kts 44°
2026-05-09 20:04 -6.86701 39.21132 180 ft 23 kts 48°
2026-05-09 20:04 -6.86585 39.21254 181 ft 27 kts 42°
2026-05-09 20:05 -6.86451 39.21385 179 ft 27 kts 45°
2026-05-09 20:05 -6.86355 39.21484 179 ft 11 kts 50°
2026-05-09 20:05 -6.86323 39.21593 176 ft 22 kts 95°
2026-05-09 20:05 -6.86367 39.21673 174 ft 10 kts 153°
2026-05-09 20:06 -6.86412 39.21663 174 ft 8 kts 226°
2026-05-09 20:06 -6.86441 39.21629 176 ft 0 kts 230°
2026-05-09 20:06 -6.86473 39.21595 177 ft 30 kts 226°
2026-05-09 20:06 -6.86840 39.21229 177 ft 116 kts 225°
2026-05-09 20:07 -6.87580 39.20484 305 ft 176 kts 225°
2026-05-09 20:07 -6.88486 39.19569 1010 ft 199 kts 224°
2026-05-09 20:07 -6.89397 39.18444 1695 ft 215 kts 238°
2026-05-09 20:07 -6.89822 39.16992 2409 ft 220 kts 264°
2026-05-09 20:08 -6.89559 39.15482 3188 ft 221 kts 293°
2026-05-09 20:08 -6.87364 39.13314 4428 ft 236 kts 337°
2026-05-09 20:08 -6.85823 39.12769 5099 ft 236 kts 351°
2026-05-09 20:09 -6.84218 39.12686 5802 ft 229 kts 18°
2026-05-09 20:09 -6.82750 39.13221 6550 ft 222 kts 25°
2026-05-09 20:09 -6.81268 39.13827 6901 ft 241 kts 25°
2026-05-09 20:09 -6.79634 39.14491 7015 ft 269 kts 24°
2026-05-09 20:10 -6.77812 39.15218 7023 ft 286 kts 24°
2026-05-09 20:10 -6.75954 39.15944 7026 ft 289 kts 23°
2026-05-09 20:10 -6.74084 39.16665 7022 ft 287 kts 23°
2026-05-09 20:10 -6.72217 39.17380 7012 ft 286 kts 23°
2026-05-09 20:11 -6.70354 39.18090 7015 ft 285 kts 23°
2026-05-09 20:11 -6.68497 39.18796 7013 ft 285 kts 23°
2026-05-09 20:11 -6.66663 39.19494 7007 ft 285 kts 23°
2026-05-09 20:11 -6.64718 39.19837 7001 ft 289 kts 357°
2026-05-09 20:12 -6.62716 39.19572 7011 ft 290 kts 353°
2026-05-09 20:12 -6.60709 39.19244 7008 ft 292 kts 352°
2026-05-09 20:12 -6.59367 39.19023 7004 ft 293 kts 352°
2026-05-09 20:12 -6.58352 39.18857 7002 ft 293 kts 352°
2026-05-09 20:13 -6.56329 39.18534 7002 ft 294 kts 353°
2026-05-09 20:13 -6.54298 39.18220 6997 ft 295 kts 353°
2026-05-09 20:13 -6.52277 39.17914 6993 ft 293 kts 353°
2026-05-09 20:13 -6.50265 39.17614 6991 ft 292 kts 353°
2026-05-09 20:14 -6.48245 39.17316 6996 ft 293 kts 353°
2026-05-09 20:14 -6.46219 39.17019 7003 ft 294 kts 353°
2026-05-09 20:14 -6.44186 39.16723 6997 ft 294 kts 353°
2026-05-09 20:14 -6.42156 39.16428 6996 ft 295 kts 353°
2026-05-09 20:15 -6.40145 39.16137 6991 ft 295 kts 353°
2026-05-09 20:15 -6.38115 39.15843 6996 ft 294 kts 353°
2026-05-09 20:15 -6.36084 39.15548 6994 ft 294 kts 353°
2026-05-09 20:15 -6.34000 39.15248 7020 ft 316 kts 353°
2026-05-09 20:16 -6.31717 39.14921 7023 ft 345 kts 353°
2026-05-09 20:16 -6.29247 39.14565 7020 ft 369 kts 353°
2026-05-09 20:16 -6.26648 39.14189 7003 ft 379 kts 353°
2026-05-09 20:16 -6.24022 39.13808 6998 ft 382 kts 353°
2026-05-09 20:17 -6.21421 39.13430 6988 ft 380 kts 353°
2026-05-09 20:17 -6.18801 39.13050 6992 ft 380 kts 353°
2026-05-09 20:17 -6.16185 39.12672 6836 ft 377 kts 353°
2026-05-09 20:17 -6.13617 39.12300 6583 ft 367 kts 353°
2026-05-09 20:18 -6.11138 39.11941 6222 ft 351 kts 353°
2026-05-09 20:18 -6.08771 39.11599 5881 ft 335 kts 353°
2026-05-09 20:18 -6.06539 39.11275 5562 ft 320 kts 353°
2026-05-09 20:18 -6.04369 39.11079 5241 ft 306 kts
2026-05-09 20:19 -6.02339 39.11548 4744 ft 297 kts 28°
2026-05-09 20:19 -6.00691 39.12668 4483 ft 277 kts 52°
2026-05-09 20:19 -5.99533 39.14127 4399 ft 259 kts 57°
2026-05-09 20:19 -5.98721 39.15651 4252 ft 239 kts 79°
2026-05-09 20:20 -5.98649 39.17242 4181 ft 219 kts 103°
2026-05-09 20:20 -5.99183 39.18602 4106 ft 202 kts 125°
2026-05-09 20:20 -6.00096 39.19585 3920 ft 189 kts 147°
2026-05-09 20:20 -6.01274 39.20008 3809 ft 176 kts 165°
2026-05-09 20:21 -6.02452 39.20287 3596 ft 169 kts 164°
2026-05-09 20:21 -6.03570 39.20529 3415 ft 160 kts 167°
2026-05-09 20:21 -6.04634 39.20693 3184 ft 152 kts 170°
2026-05-09 20:21 -6.05680 39.20818 3000 ft 144 kts 171°
2026-05-09 20:22 -6.06660 39.20924 2812 ft 144 kts 172°
2026-05-09 20:22 -6.07669 39.21028 2630 ft 147 kts 172°
2026-05-09 20:22 -6.08691 39.21131 2433 ft 146 kts 172°
2026-05-09 20:22 -6.09705 39.21233 2240 ft 146 kts 172°
2026-05-09 20:23 -6.10696 39.21333 2060 ft 141 kts 172°
2026-05-09 20:23 -6.11657 39.21429 1889 ft 136 kts 173°
2026-05-09 20:23 -6.12595 39.21524 1701 ft 135 kts 174°
2026-05-09 20:23 -6.13544 39.21619 1529 ft 138 kts 173°
2026-05-09 20:24 -6.14494 39.21714 1346 ft 139 kts 173°
2026-05-09 20:24 -6.15459 39.21811 1165 ft 140 kts 173°
2026-05-09 20:24 -6.16431 39.21909 973 ft 140 kts 173°
2026-05-09 20:24 -6.17390 39.22005 801 ft 137 kts 173°
2026-05-09 20:25 -6.18322 39.22099 651 ft 136 kts 174°
2026-05-09 20:25 -6.19262 39.22197 430 ft 139 kts 175°
2026-05-09 20:25 -6.20234 39.22292 270 ft 141 kts 174°
2026-05-09 20:25 -6.21208 39.22388 132 ft 139 kts 174°
2026-05-09 20:26 -6.22137 39.22483 54 ft 121 kts 174°
2026-05-09 20:26 -6.22760 39.22546 56 ft 59 kts 174°
2026-05-09 20:26 -6.23056 39.22576 59 ft 40 kts 174°
2026-05-09 20:26 -6.23306 39.22604 56 ft 26 kts 174°
2026-05-09 20:27 -6.23461 39.22617 56 ft 23 kts 175°
2026-05-09 20:27 -6.23631 39.22634 59 ft 27 kts 174°
2026-05-09 20:27 -6.23784 39.22640 55 ft 16 kts 205°
2026-05-09 20:27 -6.23812 39.22522 57 ft 21 kts 279°
2026-05-09 20:28 -6.23678 39.22467 57 ft 25 kts 355°
2026-05-09 20:28 -6.23503 39.22448 53 ft 26 kts 355°
2026-05-09 20:28 -6.23310 39.22431 55 ft 26 kts 354°
2026-05-09 20:29 -6.22923 39.22392 56 ft 25 kts 354°
2026-05-09 20:29 -6.22761 39.22376 54 ft 16 kts 354°
2026-05-09 20:29 -6.22648 39.22364 56 ft 19 kts 354°
2026-05-09 20:29 -6.22501 39.22349 56 ft 23 kts 354°
2026-05-09 20:30 -6.22367 39.22335 51 ft 20 kts 354°
2026-05-09 20:30 -6.22263 39.22326 53 ft 9 kts 355°
2026-05-09 20:30 -6.22212 39.22294 55 ft 8 kts 282°
2026-05-09 20:30 -6.22215 39.22259 54 ft 2 kts 264°
2026-05-09 20:31 -6.22217 39.22247 57 ft 0 kts 264°